N258LJ KMRY-KJAC

Flight info

Callsign N258LJ
Flight time 1h 44m
Altitude 45000
Route SNS YERIN MAGPY PARZZ TULIE PIINE
Aircraft C750/M-SBDE3FGHRWXY/S

Departure

Time 2026-05-07 00:38
Airport Monterey Regional Airport (KMRY)

Arrival

Time 2026-05-07 02:23
Airport Jackson Hole Airport (KJAC)
Time Latitude Longitude Altitude Speed Heading
2026-05-07 00:21 36.58942 -121.85798 164 ft 0 kts 344°
2026-05-07 00:31 36.58943 -121.85798 164 ft 1 kts 348°
2026-05-07 00:31 36.58952 -121.85785 164 ft 5 kts 62°
2026-05-07 00:31 36.58950 -121.85742 164 ft 0 kts 112°
2026-05-07 00:32 36.58940 -121.85714 164 ft 7 kts 112°
2026-05-07 00:32 36.58933 -121.85644 166 ft 7 kts 76°
2026-05-07 00:32 36.58943 -121.85594 167 ft 6 kts 76°
2026-05-07 00:32 36.58955 -121.85536 169 ft 9 kts 76°
2026-05-07 00:33 36.58948 -121.85449 172 ft 12 kts 112°
2026-05-07 00:33 36.58929 -121.85352 175 ft 11 kts 112°
2026-05-07 00:33 36.58902 -121.85274 179 ft 9 kts 113°
2026-05-07 00:33 36.58878 -121.85202 182 ft 11 kts 112°
2026-05-07 00:34 36.58839 -121.85085 188 ft 17 kts 113°
2026-05-07 00:34 36.58796 -121.84958 194 ft 15 kts 113°
2026-05-07 00:34 36.58759 -121.84850 199 ft 12 kts 112°
2026-05-07 00:34 36.58727 -121.84755 203 ft 12 kts 112°
2026-05-07 00:35 36.58691 -121.84653 207 ft 14 kts 120°
2026-05-07 00:35 36.58641 -121.84546 213 ft 15 kts 112°
2026-05-07 00:35 36.58600 -121.84424 216 ft 16 kts 112°
2026-05-07 00:35 36.58557 -121.84296 222 ft 17 kts 112°
2026-05-07 00:36 36.58509 -121.84155 228 ft 18 kts 113°
2026-05-07 00:36 36.58458 -121.84005 235 ft 19 kts 112°
2026-05-07 00:36 36.58407 -121.83853 242 ft 19 kts 112°
2026-05-07 00:36 36.58360 -121.83711 249 ft 16 kts 112°
2026-05-07 00:37 36.58316 -121.83581 254 ft 18 kts 112°
2026-05-07 00:37 36.58287 -121.83459 259 ft 12 kts 94°
2026-05-07 00:37 36.58302 -121.83374 262 ft 10 kts 46°
2026-05-07 00:37 36.58353 -121.83404 260 ft 12 kts 293°
2026-05-07 00:38 36.58460 -121.83721 247 ft 89 kts 292°
2026-05-07 00:38 36.58802 -121.84718 358 ft 143 kts 291°
2026-05-07 00:38 36.59215 -121.85892 1044 ft 154 kts 292°
2026-05-07 00:38 36.59658 -121.87240 1526 ft 185 kts 291°
2026-05-07 00:39 36.60150 -121.88870 2039 ft 215 kts 290°
2026-05-07 00:39 36.60682 -121.90760 2551 ft 247 kts 290°
2026-05-07 00:39 36.61231 -121.92843 3426 ft 257 kts 288°
2026-05-07 00:39 36.61412 -121.95064 4434 ft 265 kts 264°
2026-05-07 00:40 36.60614 -121.97185 5201 ft 280 kts 230°
2026-05-07 00:40 36.59086 -121.98690 6152 ft 282 kts 214°
2026-05-07 00:40 36.57430 -122.00009 6984 ft 290 kts 213°
2026-05-07 00:40 36.55519 -122.00855 7775 ft 297 kts 184°
2026-05-07 00:41 36.53489 -122.00537 8859 ft 293 kts 166°
2026-05-07 00:41 36.51499 -121.99881 9844 ft 298 kts 163°
2026-05-07 00:41 36.49506 -121.99041 10390 ft 313 kts 151°
2026-05-07 00:41 36.47829 -121.97184 10393 ft 339 kts 123°
2026-05-07 00:42 36.47013 -121.94373 10580 ft 352 kts 93°
2026-05-07 00:42 36.47431 -121.91448 11502 ft 344 kts 66°
2026-05-07 00:42 36.48724 -121.89004 12228 ft 346 kts 51°
2026-05-07 00:42 36.50322 -121.86728 12955 ft 350 kts 49°
2026-05-07 00:43 36.51912 -121.84403 13663 ft 355 kts 52°
2026-05-07 00:43 36.53383 -121.81912 14301 ft 360 kts 56°
2026-05-07 00:43 36.54858 -121.79381 14964 ft 362 kts 53°
2026-05-07 00:43 36.56414 -121.76890 15618 ft 366 kts 52°
2026-05-07 00:44 36.57956 -121.74391 16278 ft 369 kts 53°
2026-05-07 00:44 36.59489 -121.71807 16948 ft 373 kts 53°
2026-05-07 00:44 36.61042 -121.69190 17632 ft 377 kts 53°
2026-05-07 00:44 36.62628 -121.66566 18337 ft 381 kts 52°
2026-05-07 00:45 36.64231 -121.63919 18965 ft 385 kts 52°
2026-05-07 00:45 36.65844 -121.61236 19602 ft 388 kts 52°
2026-05-07 00:45 36.67738 -121.58821 20165 ft 392 kts 40°
2026-05-07 00:45 36.69796 -121.56626 20852 ft 395 kts 40°
2026-05-07 00:46 36.71892 -121.54319 21508 ft 399 kts 41°
2026-05-07 00:46 36.73951 -121.52029 22146 ft 404 kts 40°
2026-05-07 00:46 36.76080 -121.49700 22798 ft 408 kts 40°
2026-05-07 00:46 36.78231 -121.47363 23450 ft 412 kts 40°
2026-05-07 00:47 36.80397 -121.44990 24032 ft 416 kts 40°
2026-05-07 00:47 36.82585 -121.42575 24600 ft 420 kts 40°
2026-05-07 00:47 36.84785 -121.40154 25156 ft 423 kts 40°
2026-05-07 00:47 36.86976 -121.37751 25701 ft 426 kts 40°
2026-05-07 00:48 36.89211 -121.35294 26254 ft 429 kts 40°
2026-05-07 00:48 36.91462 -121.32813 26789 ft 432 kts 40°
2026-05-07 00:48 36.93725 -121.30316 27354 ft 436 kts 40°
2026-05-07 00:48 36.96012 -121.27793 27876 ft 439 kts 40°
2026-05-07 00:49 36.98315 -121.25251 28415 ft 443 kts 40°
2026-05-07 00:49 37.00637 -121.22685 28948 ft 446 kts 40°
2026-05-07 00:49 37.02973 -121.20100 29464 ft 450 kts 40°
2026-05-07 00:49 37.05291 -121.17534 29962 ft 453 kts 40°
2026-05-07 00:50 37.07667 -121.14903 30425 ft 457 kts 40°
2026-05-07 00:50 37.10053 -121.12256 30865 ft 459 kts 40°
2026-05-07 00:50 37.12452 -121.09593 31398 ft 459 kts 40°
2026-05-07 00:50 37.14836 -121.06944 32095 ft 455 kts 40°
2026-05-07 00:51 37.17198 -121.04317 32743 ft 453 kts 40°
2026-05-07 00:51 37.19529 -121.01724 33376 ft 452 kts 40°
2026-05-07 00:51 37.21879 -120.99107 34037 ft 450 kts 40°
2026-05-07 00:51 37.24221 -120.96495 34613 ft 448 kts 40°
2026-05-07 00:52 37.26551 -120.93897 35171 ft 447 kts 40°
2026-05-07 00:52 37.28873 -120.91303 35736 ft 445 kts 39°
2026-05-07 00:52 37.31182 -120.88722 36300 ft 444 kts 39°
2026-05-07 00:52 37.33487 -120.86144 36885 ft 442 kts 39°
2026-05-07 00:53 37.35750 -120.83609 37471 ft 441 kts 39°
2026-05-07 00:53 37.38037 -120.81046 38069 ft 440 kts 39°
2026-05-07 00:53 37.40319 -120.78488 38657 ft 439 kts 39°
2026-05-07 00:53 37.42591 -120.75939 39134 ft 438 kts 39°
2026-05-07 00:54 37.44863 -120.73387 39556 ft 438 kts 39°
2026-05-07 00:54 37.47136 -120.70831 39975 ft 438 kts 39°
2026-05-07 00:54 37.49412 -120.68269 40393 ft 438 kts 39°
2026-05-07 00:54 37.51689 -120.65705 40810 ft 439 kts 39°
2026-05-07 00:55 37.53968 -120.63136 41229 ft 439 kts 39°
2026-05-07 00:55 37.56241 -120.60573 41635 ft 439 kts 39°
2026-05-07 00:55 37.58516 -120.58004 42032 ft 439 kts 39°
2026-05-07 00:55 37.60796 -120.55427 42421 ft 440 kts 39°
2026-05-07 00:56 37.63075 -120.52849 42806 ft 440 kts 40°
2026-05-07 00:56 37.65323 -120.50305 43177 ft 440 kts 40°
2026-05-07 00:56 37.67601 -120.47724 43532 ft 440 kts 40°
2026-05-07 00:56 37.69890 -120.45127 43891 ft 440 kts 40°
2026-05-07 00:57 37.72168 -120.42542 44239 ft 441 kts 40°
2026-05-07 00:57 37.74451 -120.39949 44576 ft 441 kts 40°
2026-05-07 00:57 37.76733 -120.37354 44892 ft 440 kts 40°
2026-05-07 00:57 37.78975 -120.34802 45111 ft 439 kts 40°
2026-05-07 00:58 37.83601 -120.29535 45088 ft 454 kts 40°
2026-05-07 00:58 37.88366 -120.24095 45107 ft 467 kts 40°
2026-05-07 00:59 37.93213 -120.18552 45115 ft 478 kts 40°
2026-05-07 00:59 37.95698 -120.15706 45113 ft 482 kts 40°
2026-05-07 01:00 38.00718 -120.09949 45110 ft 487 kts 40°
2026-05-07 01:00 38.05756 -120.04160 45105 ft 489 kts 40°
2026-05-07 01:01 38.10769 -119.98390 45108 ft 490 kts 40°
2026-05-07 01:01 38.15811 -119.92573 45108 ft 490 kts 40°
2026-05-07 01:02 38.20856 -119.86743 45113 ft 490 kts 40°
2026-05-07 01:02 38.25904 -119.80897 45113 ft 490 kts 40°
2026-05-07 01:03 38.30930 -119.75065 45115 ft 491 kts 40°
2026-05-07 01:03 38.35972 -119.69203 45115 ft 490 kts 40°
2026-05-07 01:04 38.41007 -119.63339 45113 ft 490 kts 40°
2026-05-07 01:04 38.46059 -119.57443 45097 ft 493 kts 40°
2026-05-07 01:05 38.51114 -119.51530 45095 ft 493 kts 40°
2026-05-07 01:05 38.56170 -119.45606 45089 ft 493 kts 40°
2026-05-07 01:06 38.61201 -119.39698 45083 ft 493 kts 40°
2026-05-07 01:06 38.66265 -119.33742 45079 ft 494 kts 40°
2026-05-07 01:07 38.71320 -119.27782 45075 ft 494 kts 40°
2026-05-07 01:07 38.76372 -119.21814 45070 ft 494 kts 40°
2026-05-07 01:08 38.81426 -119.15833 45066 ft 495 kts 40°
2026-05-07 01:08 38.86455 -119.09867 45059 ft 495 kts 40°
2026-05-07 01:09 38.91513 -119.03857 45055 ft 495 kts 40°
2026-05-07 01:09 38.96573 -118.97831 45054 ft 495 kts 40°
2026-05-07 01:10 39.00588 -118.92546 45036 ft 498 kts 45°
2026-05-07 01:10 39.05220 -118.85915 45051 ft 498 kts 45°
2026-05-07 01:11 39.09921 -118.79347 45061 ft 498 kts 45°
2026-05-07 01:11 39.14546 -118.72763 45077 ft 498 kts 45°
2026-05-07 01:12 39.19216 -118.66165 45093 ft 498 kts 45°
2026-05-07 01:12 39.23874 -118.59535 45104 ft 498 kts 45°
2026-05-07 01:13 39.28540 -118.52896 45111 ft 498 kts 45°
2026-05-07 01:13 39.33193 -118.46256 45111 ft 498 kts 45°
2026-05-07 01:14 39.37840 -118.39611 45095 ft 499 kts 45°
2026-05-07 01:14 39.42455 -118.32998 45088 ft 498 kts 45°
2026-05-07 01:15 39.47103 -118.26323 45075 ft 499 kts 45°
2026-05-07 01:15 39.51744 -118.19645 45066 ft 498 kts 45°
2026-05-07 01:16 39.56383 -118.12954 45070 ft 499 kts 45°
2026-05-07 01:16 39.60985 -118.06302 45079 ft 499 kts 45°
2026-05-07 01:17 39.65619 -117.99589 45073 ft 499 kts 45°
2026-05-07 01:17 39.70253 -117.92863 45077 ft 499 kts 45°
2026-05-07 01:18 39.74888 -117.86119 45079 ft 499 kts 45°
2026-05-07 01:18 39.79484 -117.79418 45077 ft 499 kts 45°
2026-05-07 01:19 39.84111 -117.72657 45073 ft 500 kts 45°
2026-05-07 01:19 39.88736 -117.65884 45079 ft 500 kts 45°
2026-05-07 01:20 39.93330 -117.59141 45080 ft 500 kts 45°
2026-05-07 01:20 39.97955 -117.52338 45075 ft 500 kts 45°
2026-05-07 01:21 40.02574 -117.45529 45083 ft 500 kts 45°
2026-05-07 01:21 40.07151 -117.38768 45080 ft 500 kts 45°
2026-05-07 01:22 40.11769 -117.31930 45089 ft 500 kts 45°
2026-05-07 01:22 40.16368 -117.25105 45080 ft 500 kts 45°
2026-05-07 01:23 40.20938 -117.18308 45077 ft 500 kts 45°
2026-05-07 01:23 40.25529 -117.11465 45081 ft 500 kts 45°
2026-05-07 01:24 40.30123 -117.04601 45092 ft 500 kts 45°
2026-05-07 01:24 40.34705 -116.97740 45113 ft 500 kts 45°
2026-05-07 01:25 40.39257 -116.90910 45123 ft 500 kts 45°
2026-05-07 01:25 40.43836 -116.84023 45137 ft 499 kts 45°
2026-05-07 01:26 40.48399 -116.77146 45149 ft 500 kts 45°
2026-05-07 01:26 40.52964 -116.70247 45138 ft 499 kts 45°
2026-05-07 01:27 40.57520 -116.63349 45132 ft 499 kts 45°
2026-05-07 01:27 40.62049 -116.56475 45114 ft 499 kts 45°
2026-05-07 01:28 40.66597 -116.49557 45096 ft 499 kts 45°
2026-05-07 01:28 40.71150 -116.42617 45071 ft 499 kts 45°
2026-05-07 01:29 40.75659 -116.35727 45070 ft 499 kts 45°
2026-05-07 01:29 40.80197 -116.28777 45072 ft 499 kts 45°
2026-05-07 01:30 40.84727 -116.21823 45088 ft 499 kts 45°
2026-05-07 01:30 40.89258 -116.14864 45100 ft 499 kts 45°
2026-05-07 01:31 40.93799 -116.07893 45111 ft 500 kts 46°
2026-05-07 01:31 40.98306 -116.00942 45117 ft 500 kts 46°
2026-05-07 01:32 41.02840 -115.93945 45107 ft 500 kts 46°
2026-05-07 01:32 41.07372 -115.86927 45108 ft 500 kts 46°
2026-05-07 01:33 41.11895 -115.79913 45099 ft 501 kts 46°
2026-05-07 01:33 41.16392 -115.72918 45085 ft 502 kts 46°
2026-05-07 01:34 41.20941 -115.65830 45085 ft 503 kts 46°
2026-05-07 01:34 41.25474 -115.58746 45080 ft 503 kts 46°
2026-05-07 01:35 41.29974 -115.51701 45079 ft 503 kts 46°
2026-05-07 01:35 41.34504 -115.44590 45079 ft 503 kts 46°
2026-05-07 01:36 41.39027 -115.37474 45082 ft 503 kts 46°
2026-05-07 01:36 41.43553 -115.30335 45081 ft 504 kts 46°
2026-05-07 01:37 41.48045 -115.23234 45087 ft 504 kts 46°
2026-05-07 01:37 41.52565 -115.16072 45086 ft 504 kts 46°
2026-05-07 01:38 41.57078 -115.08904 45075 ft 504 kts 46°
2026-05-07 01:38 41.61489 -115.01697 45074 ft 505 kts 49°
2026-05-07 01:39 41.65636 -114.94092 45087 ft 506 kts 50°
2026-05-07 01:39 41.69818 -114.86521 45089 ft 505 kts 49°
2026-05-07 01:40 41.73977 -114.78920 45084 ft 505 kts 50°
2026-05-07 01:40 41.78129 -114.71329 45083 ft 506 kts 50°
2026-05-07 01:41 41.82255 -114.63769 45082 ft 505 kts 50°
2026-05-07 01:41 41.86398 -114.56151 45081 ft 505 kts 50°
2026-05-07 01:42 41.90537 -114.48531 45078 ft 505 kts 50°
2026-05-07 01:42 41.94675 -114.40884 45082 ft 506 kts 50°
2026-05-07 01:43 41.98809 -114.33231 45083 ft 506 kts 50°
2026-05-07 01:43 42.02912 -114.25613 45084 ft 506 kts 50°
2026-05-07 01:44 42.07039 -114.17933 45085 ft 506 kts 50°
2026-05-07 01:44 42.11160 -114.10243 45083 ft 506 kts 50°
2026-05-07 01:45 42.15254 -114.02586 45082 ft 506 kts 50°
2026-05-07 01:45 42.19364 -113.94878 45077 ft 506 kts 50°
2026-05-07 01:46 42.23467 -113.87163 45075 ft 507 kts 50°
2026-05-07 01:46 42.27575 -113.79421 45077 ft 507 kts 50°
2026-05-07 01:47 42.31679 -113.71665 45082 ft 507 kts 50°
2026-05-07 01:47 42.35746 -113.63957 45069 ft 506 kts 50°
2026-05-07 01:48 42.39833 -113.56196 45070 ft 507 kts 50°
2026-05-07 01:48 42.43926 -113.48400 45069 ft 507 kts 50°
2026-05-07 01:49 42.48007 -113.40608 45059 ft 507 kts 50°
2026-05-07 01:49 42.52067 -113.32834 45051 ft 507 kts 50°
2026-05-07 01:50 42.56143 -113.25012 45045 ft 508 kts 50°
2026-05-07 01:50 42.60221 -113.17164 45045 ft 508 kts 50°
2026-05-07 01:51 42.64334 -113.09364 45040 ft 507 kts 48°
2026-05-07 01:51 42.68580 -113.01777 45048 ft 507 kts 49°
2026-05-07 01:52 42.72833 -112.94117 45057 ft 507 kts 48°
2026-05-07 01:52 42.77104 -112.86435 45068 ft 507 kts 49°
2026-05-07 01:53 42.81320 -112.78810 45076 ft 507 kts 49°
2026-05-07 01:53 42.85568 -112.71123 45087 ft 507 kts 49°
2026-05-07 01:54 42.89802 -112.63434 45088 ft 507 kts 49°
2026-05-07 01:54 42.94037 -112.55726 45087 ft 507 kts 49°
2026-05-07 01:55 42.98227 -112.48079 45088 ft 507 kts 49°
2026-05-07 01:55 43.00314 -112.44258 44699 ft 496 kts 49°
2026-05-07 01:55 43.02357 -112.40513 43997 ft 485 kts 48°
2026-05-07 01:55 43.04357 -112.36848 43355 ft 475 kts 48°
2026-05-07 01:56 43.06311 -112.33265 42735 ft 465 kts 47°
2026-05-07 01:56 43.08222 -112.29753 42138 ft 455 kts 47°
2026-05-07 01:56 43.10098 -112.26301 41541 ft 447 kts 47°
2026-05-07 01:56 43.11943 -112.22906 40967 ft 444 kts 47°
2026-05-07 01:57 43.13786 -112.19514 40387 ft 444 kts 47°
2026-05-07 01:57 43.15606 -112.16156 39813 ft 444 kts 47°
2026-05-07 01:57 43.17452 -112.12741 39234 ft 445 kts 47°
2026-05-07 01:57 43.19292 -112.09335 38619 ft 444 kts 47°
2026-05-07 01:58 43.21124 -112.05941 38007 ft 442 kts 47°
2026-05-07 01:58 43.22953 -112.02550 37425 ft 442 kts 47°
2026-05-07 01:58 43.24167 -112.00299 37040 ft 443 kts 47°
2026-05-07 01:58 43.26598 -111.95781 36265 ft 444 kts 47°
2026-05-07 01:59 43.28430 -111.92371 35680 ft 443 kts 47°
2026-05-07 01:59 43.29646 -111.90103 35292 ft 443 kts 47°
2026-05-07 01:59 43.31480 -111.86687 34703 ft 442 kts 47°
2026-05-07 01:59 43.33304 -111.83282 34113 ft 442 kts 47°
2026-05-07 02:00 43.35130 -111.79869 33507 ft 444 kts 47°
2026-05-07 02:00 43.36963 -111.76442 32921 ft 446 kts 47°
2026-05-07 02:00 43.38808 -111.72989 32327 ft 449 kts 47°
2026-05-07 02:00 43.40657 -111.69518 31736 ft 452 kts 47°
2026-05-07 02:01 43.42525 -111.66009 31141 ft 454 kts 47°
2026-05-07 02:01 43.44378 -111.62530 30545 ft 458 kts 47°
2026-05-07 02:01 43.46245 -111.59009 29911 ft 453 kts 48°
2026-05-07 02:01 43.48097 -111.55514 29318 ft 449 kts 48°
2026-05-07 02:02 43.49939 -111.52041 28717 ft 445 kts 47°
2026-05-07 02:02 43.51763 -111.48602 28131 ft 442 kts 47°
2026-05-07 02:02 43.53567 -111.45188 27558 ft 439 kts 47°
2026-05-07 02:02 43.55355 -111.41801 26980 ft 435 kts 47°
2026-05-07 02:03 43.57106 -111.38476 26428 ft 432 kts 48°
2026-05-07 02:03 43.58709 -111.34946 25861 ft 433 kts 53°
2026-05-07 02:03 43.60241 -111.31367 25294 ft 430 kts 53°
2026-05-07 02:03 43.61772 -111.27828 24736 ft 427 kts 52°
2026-05-07 02:04 43.63307 -111.24330 24184 ft 423 kts 52°
2026-05-07 02:04 43.64315 -111.22027 23822 ft 423 kts 52°
2026-05-07 02:04 43.65077 -111.20272 23500 ft 420 kts 53°
2026-05-07 02:04 43.66562 -111.16822 22943 ft 417 kts 53°
2026-05-07 02:05 43.68039 -111.13402 22397 ft 413 kts 52°
2026-05-07 02:05 43.69511 -111.10008 21852 ft 410 kts 52°
2026-05-07 02:05 43.70973 -111.06631 21315 ft 407 kts 53°
2026-05-07 02:05 43.72419 -111.03274 20777 ft 404 kts 53°
2026-05-07 02:06 43.73854 -110.99939 20246 ft 401 kts 53°
2026-05-07 02:06 43.75262 -110.96670 19726 ft 399 kts 53°
2026-05-07 02:06 43.76677 -110.93382 19199 ft 398 kts 53°
2026-05-07 02:06 43.78102 -110.90066 18686 ft 394 kts 53°
2026-05-07 02:07 43.79485 -110.86826 18116 ft 390 kts 53°
2026-05-07 02:07 43.82240 -110.80412 17080 ft 391 kts 54°
2026-05-07 02:07 43.83617 -110.77186 16586 ft 386 kts 54°
2026-05-07 02:08 43.84976 -110.73989 16049 ft 382 kts 53°
2026-05-07 02:08 43.86316 -110.70846 15565 ft 378 kts 53°
2026-05-07 02:08 43.87369 -110.67483 14993 ft 387 kts 71°
2026-05-07 02:08 43.87749 -110.63788 14528 ft 386 kts 72°
2026-05-07 02:09 43.88854 -110.60596 14179 ft 346 kts 45°
2026-05-07 02:09 43.90605 -110.58801 14173 ft 295 kts 16°
2026-05-07 02:09 43.92500 -110.58573 14157 ft 269 kts 345°
2026-05-07 02:09 43.94076 -110.59846 14220 ft 265 kts 317°
2026-05-07 02:10 43.95360 -110.61684 14266 ft 265 kts 315°
2026-05-07 02:10 43.96710 -110.63420 14262 ft 264 kts 320°
2026-05-07 02:10 43.98205 -110.64909 14246 ft 264 kts 328°
2026-05-07 02:10 43.99848 -110.66076 14256 ft 265 kts 333°
2026-05-07 02:11 44.01532 -110.67165 14253 ft 276 kts 333°
2026-05-07 02:11 44.03343 -110.68451 14262 ft 307 kts 331°
2026-05-07 02:11 44.05301 -110.69896 14249 ft 325 kts 331°
2026-05-07 02:11 44.07320 -110.71350 14248 ft 329 kts 332°
2026-05-07 02:12 44.09434 -110.72593 14212 ft 333 kts 342°
2026-05-07 02:12 44.11746 -110.72996 14098 ft 337 kts 356°
2026-05-07 02:12 44.14086 -110.72512 14089 ft 345 kts 11°
2026-05-07 02:12 44.16296 -110.71112 14090 ft 354 kts 27°
2026-05-07 02:13 44.18172 -110.68842 14090 ft 365 kts 43°
2026-05-07 02:13 44.19537 -110.65807 14091 ft 377 kts 60°
2026-05-07 02:13 44.20197 -110.62291 14082 ft 387 kts 78°
2026-05-07 02:13 44.20044 -110.58511 14085 ft 396 kts 98°
2026-05-07 02:14 44.19020 -110.54922 14068 ft 402 kts 118°
2026-05-07 02:14 44.17207 -110.51944 14062 ft 405 kts 139°
2026-05-07 02:14 44.14789 -110.49945 14079 ft 404 kts 159°
2026-05-07 02:14 44.12061 -110.49146 14078 ft 398 kts 180°
2026-05-07 02:15 44.09338 -110.49605 14084 ft 390 kts 200°
2026-05-07 02:15 44.06891 -110.50783 14048 ft 355 kts 205°
2026-05-07 02:15 44.04654 -110.51945 13757 ft 337 kts 206°
2026-05-07 02:15 44.02476 -110.53079 13441 ft 314 kts 205°
2026-05-07 02:16 44.00484 -110.54076 13113 ft 308 kts 205°
2026-05-07 02:16 43.98515 -110.55072 12825 ft 293 kts 206°
2026-05-07 02:16 43.96624 -110.56035 12536 ft 288 kts 206°
2026-05-07 02:16 43.94746 -110.56993 12255 ft 286 kts 206°
2026-05-07 02:17 43.92887 -110.57932 11991 ft 282 kts 205°
2026-05-07 02:17 43.91039 -110.58865 11716 ft 280 kts 205°
2026-05-07 02:17 43.89225 -110.59780 11443 ft 277 kts 205°
2026-05-07 02:17 43.87424 -110.60691 11178 ft 274 kts 205°
2026-05-07 02:18 43.85640 -110.61589 10910 ft 271 kts 204°
2026-05-07 02:18 43.83869 -110.62452 10648 ft 269 kts 204°
2026-05-07 02:18 43.82126 -110.63302 10388 ft 266 kts 204°
2026-05-07 02:18 43.80452 -110.64117 10128 ft 242 kts 204°
2026-05-07 02:19 43.78905 -110.64866 9875 ft 229 kts 204°
2026-05-07 02:19 43.77418 -110.65590 9639 ft 225 kts 204°
2026-05-07 02:19 43.75945 -110.66311 9538 ft 226 kts 205°
2026-05-07 02:19 43.74453 -110.67044 9209 ft 226 kts 204°
2026-05-07 02:20 43.72993 -110.67759 8878 ft 226 kts 202°
2026-05-07 02:20 43.71506 -110.68489 8534 ft 225 kts 201°
2026-05-07 02:20 43.70052 -110.69200 8232 ft 209 kts 201°
2026-05-07 02:20 43.68743 -110.69851 7989 ft 197 kts 202°
2026-05-07 02:21 43.67459 -110.70479 7771 ft 185 kts 203°
2026-05-07 02:21 43.66345 -110.71017 7525 ft 156 kts 203°
2026-05-07 02:21 43.65388 -110.71493 7314 ft 136 kts 203°
2026-05-07 02:21 43.64512 -110.71936 7137 ft 132 kts 201°
2026-05-07 02:22 43.63638 -110.72361 6962 ft 135 kts 199°
2026-05-07 02:22 43.62751 -110.72786 6742 ft 138 kts 198°
2026-05-07 02:22 43.61856 -110.73223 6549 ft 134 kts 197°
2026-05-07 02:22 43.61017 -110.73634 6430 ft 117 kts 198°
2026-05-07 02:23 43.60376 -110.73948 6424 ft 58 kts 199°
2026-05-07 02:23 43.60163 -110.74052 6426 ft 27 kts 199°
2026-05-07 02:23 43.60023 -110.74121 6425 ft 18 kts 199°
2026-05-07 02:23 43.59964 -110.74100 6426 ft 6 kts 134°
2026-05-07 02:24 43.59947 -110.74050 6426 ft 5 kts 107°
2026-05-07 02:24 43.59929 -110.74018 6425 ft 4 kts 156°
2026-05-07 02:24 43.59899 -110.74021 6427 ft 6 kts 189°
2026-05-07 02:24 43.59884 -110.73991 6427 ft 4 kts 110°
2026-05-07 02:25 43.59871 -110.73945 6427 ft 7 kts 111°
2026-05-07 02:25 43.59864 -110.73918 6426 ft 0 kts 111°
2026-05-07 02:25 43.59864 -110.73917 6426 ft 1 kts 105°
2026-05-07 02:26 43.59872 -110.73901 6427 ft 3 kts 33°
2026-05-07 02:26 43.59894 -110.73889 6426 ft 2 kts 22°
2026-05-07 02:26 43.59903 -110.73884 6427 ft 0 kts 22°